When you browse on this site, cookies collect data to enhance your experience and personalize the content and advertising you see.
Visit our Privacy Policy to learn more. By continuing to use the site, you agree to this use of cookies and data.
  • în România
  • Lista ţărilor
  • Pe 7 zile
  • Temperatura apei
  • Hartă satelitară
  • Meteo pe hartă
  • Widget-uri
  • user-avatar
    Intrare

    Meteo pe oră la Koscielec

    Astăzi, 22 Februarie, Vineri

    Timp Temperatura Precipitaţii Vânt Presiune Umiditate
    00:00 -7°C° 0.8 mm 1 m/s 593 mmHg 95%
    01:00 -7°C° 0 mm 0 m/s 592 mmHg 96%
    02:00 -7°C° 0.5 mm 1 m/s 592 mmHg 96%
    03:00 -7°C° 0.5 mm 1 m/s 592 mmHg 95%
    04:00 -8°C° 0.5 mm 2 m/s 592 mmHg 95%
    05:00 -8°C° 0.9 mm 2 m/s 592 mmHg 95%
    06:00 -8°C° 0.9 mm 2 m/s 593 mmHg 95%
    07:00 -7°C° 0.9 mm 2 m/s 593 mmHg 96%
    08:00 -10°C° 0.6 mm 3 m/s 593 mmHg 95%
    09:00 -12°C° 0.6 mm 4 m/s 593 mmHg 94%
    10:00 -14°C° 0.6 mm 4 m/s 594 mmHg 94%
    11:00 -15°C° 0.2 mm 5 m/s 594 mmHg 91%
    12:00 -15°C° 0.2 mm 5 m/s 594 mmHg 88%
    13:00 -17°C° 0.2 mm 5 m/s 595 mmHg 85%
    14:00 -18°C° 0 mm 5 m/s 595 mmHg 83%
    15:00 -19°C° 0 mm 5 m/s 595 mmHg 82%
    16:00 -20°C° 0 mm 5 m/s 595 mmHg 81%
    17:00 -21°C° 0 mm 5 m/s 595 mmHg 82%
    18:00 -22°C° 0 mm 4 m/s 595 mmHg 84%
    19:00 -23°C° 0 mm 4 m/s 596 mmHg 86%
    20:00 -24°C° 0 mm 4 m/s 596 mmHg 86%
    21:00 -24°C° 0 mm 4 m/s 596 mmHg 86%
    22:00 -24°C° 0 mm 4 m/s 597 mmHg 85%
    23:00 -24°C° 0 mm 3 m/s 597 mmHg 85%

    Mâine, 23 Februarie, Sâmbătă

    Timp Temperatura Precipitaţii Vânt Presiune Umiditate
    00:00 -24°C° 0 mm 3 m/s 597 mmHg 85%
    01:00 -24°C° 0 mm 3 m/s 597 mmHg 84%
    02:00 -24°C° 0 mm 3 m/s 597 mmHg 85%
    03:00 -24°C° 0 mm 3 m/s 597 mmHg 86%
    04:00 -24°C° 0 mm 2 m/s 597 mmHg 87%
    05:00 -24°C° 0 mm 2 m/s 597 mmHg 88%
    06:00 -24°C° 0 mm 2 m/s 597 mmHg 89%
    07:00 -24°C° 0 mm 2 m/s 597 mmHg 90%
    08:00 -21°C° 0 mm 2 m/s 598 mmHg 86%
    09:00 -21°C° 0 mm 3 m/s 600 mmHg 82%
    10:00 -19°C° 0 mm 3 m/s 601 mmHg 78%
    11:00 -18°C° 0 mm 3 m/s 601 mmHg 76%
    12:00 -17°C° 0 mm 3 m/s 602 mmHg 74%
    13:00 -15°C° 0 mm 2 m/s 602 mmHg 73%
    14:00 -15°C° 0 mm 2 m/s 602 mmHg 74%
    15:00 -16°C° 0 mm 2 m/s 601 mmHg 76%
    16:00 -16°C° 0 mm 2 m/s 601 mmHg 77%
    17:00 -17°C° 0 mm 2 m/s 600 mmHg 80%
    18:00 -17°C° 0 mm 1 m/s 600 mmHg 83%
    19:00 -18°C° 0 mm 1 m/s 599 mmHg 86%
    20:00 -18°C° 0 mm 1 m/s 599 mmHg 83%
    21:00 -18°C° 0 mm 1 m/s 599 mmHg 80%
    22:00 -19°C° 0 mm 1 m/s 599 mmHg 77%
    23:00 -18°C° 0 mm 1 m/s 599 mmHg 74%

    Poimâine, 24 Februarie, Duminică

    Timp Temperatura Precipitaţii Vânt Presiune Umiditate
    00:00 -18°C° 0 mm 1 m/s 599 mmHg 70%
    01:00 -18°C° 0 mm 1 m/s 599 mmHg 66%
    02:00 -17°C° 0 mm 1 m/s 599 mmHg 64%
    03:00 -17°C° 0 mm 1 m/s 599 mmHg 61%
    04:00 -17°C° 0 mm 1 m/s 599 mmHg 59%
    05:00 -16°C° 0 mm 1 m/s 600 mmHg 60%
    06:00 -16°C° 0 mm 1 m/s 600 mmHg 62%
    07:00 -15°C° 0 mm 1 m/s 601 mmHg 64%
    08:00 -13°C° 0 mm 1 m/s 602 mmHg 62%
    09:00 -11°C° 0 mm 0 m/s 603 mmHg 60%
    10:00 -9°C° 0 mm 0 m/s 604 mmHg 57%
    11:00 -8°C° 0 mm 1 m/s 604 mmHg 62%
    12:00 -7°C° 0 mm 1 m/s 604 mmHg 67%
    13:00 -6°C° 0 mm 1 m/s 605 mmHg 72%
    14:00 -6°C° 0 mm 1 m/s 604 mmHg 74%
    15:00 -7°C° 0 mm 1 m/s 604 mmHg 76%
    16:00 -7°C° 0 mm 1 m/s 604 mmHg 78%
    17:00 -9°C° 0 mm 1 m/s 603 mmHg 79%
    18:00 -10°C° 0 mm 1 m/s 602 mmHg 79%
    19:00 -12°C° 0 mm 1 m/s 601 mmHg 80%
    20:00 -12°C° 0 mm 1 m/s 601 mmHg 77%
    21:00 -12°C° 0 mm 1 m/s 601 mmHg 74%
    22:00 -12°C° 0 mm 1 m/s 601 mmHg 72%
    23:00 -12°C° 0 mm 1 m/s 602 mmHg 73%

    25 Februarie, Luni

    Timp Temperatura Precipitaţii Vânt Presiune Umiditate
    00:00 -11°C° 0 mm 1 m/s 602 mmHg 75%
    01:00 -11°C° 0 mm 1 m/s 602 mmHg 76%
    02:00 -10°C° 0 mm 1 m/s 602 mmHg 77%
    03:00 -10°C° 0 mm 1 m/s 602 mmHg 78%
    04:00 -10°C° 0 mm 1 m/s 602 mmHg 79%
    05:00 -10°C° 0 mm 1 m/s 602 mmHg 81%
    06:00 -9°C° 0 mm 1 m/s 602 mmHg 83%
    07:00 -9°C° 0 mm 1 m/s 602 mmHg 85%
    08:00 -7°C° 0 mm 1 m/s 603 mmHg 83%
    09:00 -7°C° 0 mm 2 m/s 604 mmHg 82%
    10:00 -5°C° 0 mm 2 m/s 604 mmHg 80%
    11:00 -5°C° 0 mm 2 m/s 604 mmHg 81%
    12:00 -4°C° 0 mm 2 m/s 604 mmHg 82%
    13:00 -4°C° 0 mm 2 m/s 604 mmHg 84%
    14:00 -5°C° 0 mm 2 m/s 604 mmHg 85%
    15:00 -5°C° 0 mm 2 m/s 603 mmHg 87%
    16:00 -6°C° 0 mm 2 m/s 603 mmHg 89%
    17:00 -7°C° 0 mm 2 m/s 602 mmHg 89%
    18:00 -9°C° 0 mm 2 m/s 601 mmHg 90%
    19:00 -10°C° 0 mm 2 m/s 601 mmHg 91%
    20:00 -10°C° 0 mm 2 m/s 600 mmHg 91%
    21:00 -12°C° 0 mm 2 m/s 600 mmHg 91%
    22:00 -12°C° 0 mm 2 m/s 600 mmHg 91%
    23:00 -10°C° 0 mm 1 m/s 600 mmHg 88%

    26 Februarie, Marţi

    Timp Temperatura Precipitaţii Vânt Presiune Umiditate
    00:00 -9°C° 0 mm 1 m/s 600 mmHg 86%
    01:00 -9°C° 0 mm 1 m/s 600 mmHg 83%
    02:00 -9°C° 0 mm 1 m/s 600 mmHg 81%
    03:00 -9°C° 0 mm 1 m/s 599 mmHg 78%
    04:00 -10°C° 0 mm 2 m/s 599 mmHg 76%
    05:00 -9°C° 0 mm 2 m/s 599 mmHg 78%
    06:00 -9°C° 0 mm 2 m/s 599 mmHg 81%
    07:00 -9°C° 0 mm 2 m/s 599 mmHg 83%
    08:00 -7°C° 0 mm 2 m/s 599 mmHg 80%
    09:00 -6°C° 0 mm 2 m/s 599 mmHg 78%
    10:00 -5°C° 0 mm 3 m/s 600 mmHg 75%
    11:00 -6°C° 0.2 mm 3 m/s 599 mmHg 76%
    12:00 -7°C° 0.2 mm 3 m/s 598 mmHg 77%
    13:00 -7°C° 0.2 mm 3 m/s 598 mmHg 79%
    14:00 -7°C° 0.1 mm 3 m/s 597 mmHg 82%
    15:00 -8°C° 0.1 mm 3 m/s 597 mmHg 86%
    16:00 -8°C° 0.1 mm 3 m/s 597 mmHg 90%
    17:00 -9°C° 0 mm 3 m/s 596 mmHg 91%
    18:00 -10°C° 0 mm 3 m/s 596 mmHg 91%
    19:00 -12°C° 0 mm 3 m/s 596 mmHg 92%
    20:00 -12°C° 0 mm 3 m/s 596 mmHg 92%
    21:00 -12°C° 0 mm 4 m/s 596 mmHg 92%
    22:00 -11°C° 0 mm 4 m/s 596 mmHg 92%
    23:00 -12°C° 0 mm 4 m/s 596 mmHg 92%

    27 Februarie, Miercuri

    Timp Temperatura Precipitaţii Vânt Presiune Umiditate
    00:00 -12°C° 0 mm 4 m/s 596 mmHg 92%
    01:00 -12°C° 0 mm 4 m/s 596 mmHg 92%
    02:00 -14°C° 0 mm 4 m/s 596 mmHg 92%
    03:00 -14°C° 0 mm 4 m/s 596 mmHg 92%
    04:00 -13°C° 0 mm 3 m/s 596 mmHg 92%
    05:00 -14°C° 0 mm 3 m/s 596 mmHg 92%
    06:00 -14°C° 0 mm 3 m/s 596 mmHg 92%
    07:00 -14°C° 0 mm 3 m/s 596 mmHg 91%
    08:00 -13°C° 0 mm 3 m/s 597 mmHg 86%
    09:00 -12°C° 0 mm 3 m/s 597 mmHg 81%
    10:00 -10°C° 0 mm 3 m/s 598 mmHg 76%
    11:00 -9°C° 0 mm 3 m/s 598 mmHg 74%
    12:00 -8°C° 0 mm 3 m/s 598 mmHg 72%
    13:00 -7°C° 0 mm 3 m/s 598 mmHg 70%
    14:00 -7°C° 0 mm 2 m/s 598 mmHg 72%
    15:00 -7°C° 0 mm 2 m/s 598 mmHg 75%
    16:00 -7°C° 0 mm 2 m/s 597 mmHg 77%
    17:00 -7°C° 0 mm 1 m/s 596 mmHg 80%
    18:00 -9°C° 0 mm 1 m/s 596 mmHg 82%
    19:00 -10°C° 0 mm 1 m/s 595 mmHg 85%
    20:00 -10°C° 0 mm 1 m/s 595 mmHg 81%
    21:00 -9°C° 0 mm 1 m/s 594 mmHg 77%
    22:00 -9°C° 0 mm 1 m/s 594 mmHg 73%
    23:00 -9°C° 0 mm 1 m/s 594 mmHg 69%
    Arată mai mult